Location: Squirrel Cove
(50.1074°N, 124.9139°W)
Time: 03:55:34
(UTC-08:00)

N. Korean satellite - Visible Passes

Search period start: 29 November 2022 00:00
Search period end: 09 December 2022 00:00
Orbit: 421 x 454 km, 97.3° (Epoch: 28 November)

Date Brightness Start Highest point End Pass type
(mag) Time Alt. Az. Time Alt. Az. Time Alt. Az.
29 Nov 9.0 04:58:16 10° NE 05:00:58 21° E 05:03:39 10° SE visible
29 Nov 7.2 06:30:29 10° N 06:33:32 30° WNW 06:36:32 10° SW visible
29 Nov 7.7 17:03:49 10° S 17:07:04 45° W 17:10:22 10° NNW visible
30 Nov 6.3 05:51:29 10° NNE 05:54:56 87° WNW 05:58:20 10° SSW visible
30 Nov 10.0 18:00:02 10° WSW 18:01:13 11° W 18:02:22 10° WNW visible
01 Dec 8.3 05:13:00 10° NNE 05:16:06 31° E 05:19:09 10° SSE visible
01 Dec 7.7 06:45:48 10° NNW 06:48:27 21° WNW 06:51:05 10° WSW visible
01 Dec 8.6 17:19:07 10° SSW 17:22:07 30° W 17:25:11 10° NNW visible
02 Dec 9.9 04:35:40 10° ENE 04:37:00 12° E 04:38:20 10° ESE visible
02 Dec 6.4 06:06:30 10° N 06:09:52 56° WNW 06:13:12 10° SSW visible
03 Dec 7.4 05:27:43 10° NNE 05:31:02 46° E 05:34:19 10° S visible
03 Dec 8.1 07:01:09 10° NNW 07:03:12 15° WNW 07:05:15 10° W visible
03 Dec 9.3 17:34:27 10° SW 17:37:04 21° W 17:39:43 10° NW visible
04 Dec 9.4 04:49:39 10° NE 04:51:57 17° E 04:54:15 10° SE visible
04 Dec 6.9 06:21:26 10° N 06:24:38 37° WNW 06:27:47 10° SW visible
04 Dec 7.1 16:54:40 10° S 16:58:01 59° W 17:01:25 10° NNW visible
05 Dec 6.6 05:42:23 10° NNE 05:45:48 72° E 05:49:10 10° S visible
05 Dec 8.4 07:16:48 10° NW 07:17:47 11° WNW 07:18:46 10° WNW visible
05 Dec 9.7 17:49:56 10° SW 17:51:54 15° W 17:53:53 10° NW visible
06 Dec 8.8 05:03:54 10° NE 05:06:44 24° E 05:09:33 10° SSE visible
06 Dec 7.4 06:36:20 10° N 06:39:13 26° WNW 06:42:04 10° SW visible
06 Dec 8.1 17:09:30 10° SSW 17:12:41 39° W 17:15:56 10° NNW visible
07 Dec 6.2 05:56:59 10° N 06:00:24 75° WNW 06:03:45 10° SSW visible
07 Dec 10.3 18:06:22 10° W 18:06:37 10° W 18:06:50 10° W visible
08 Dec 8.0 05:18:11 10° NNE 05:21:20 35° E 05:24:27 10° SSE visible
08 Dec 7.8 06:51:10 10° NNW 06:53:37 19° WNW 06:56:03 10° WSW visible
08 Dec 8.9 17:24:20 10° SSW 17:27:15 26° W 17:30:12 10° NW visible
